Location: Crescent
(42.8242°N, 73.7329°W)
Time: 02:30:27
(UTC+00:00)

Transit 4A - Pass Details

Date: 23 February 2026
Orbit: 863 x 978 km, 66.8° (Epoch: 13 March)

Event Time Altitude Azimuth Distance (km) Brightness Sun altitude
Rises 06:16:17 0° 175° (S) 3,440 - -53.8°
Reaches altitude 10° 06:19:04 10° 164° (SSE) 2,517 - -53.5°
Maximum altitude 06:23:52 27° 108° (ESE) 1,625 - -53.1°
Drops below altitude 10° 06:28:47 10° 52° (NE) 2,585 - -52.6°
Exits shadow 06:30:03 - 46° (NE) 2,991 11.0 -52.5°
Sets 06:31:40 0° 41° (NE) 3,550 11.5 -52.3°
